Retour au catalogue

CZ-6A DEB

ActifSSO
NORAD 56279·DEBRIS·🇨🇳 China

Lancé Nov 11, 2022 depuis Taiyuan Satellite Launch Center

Loading…

Prochains Passages (prochaines 24 heures)

TLE

FraisSource: Space-Track

Époque: Sep 14, 2026, 10:07 UTC

1 56279U 22151ACX 26257.42166389  .00000506  00000-0  33067-3 0  9994
2 56279  98.9072 253.2268 0070476 129.4651 231.2780 14.05481794178895

Suivez CZ-6A DEB en temps réel avec AllMySat

Download on the App Store